sat.trackr.live / text

‹ back to catalog

BUFENG 1A

NORAD 44310 · 2019-032A

PAYLOAD ACTIVE UNKNOWN

§ Identity

Operator
Country
PRC
Launch date
2019-06-05
Launch site
YSLA
Launch vehicle
Mass (kg)
RCS (m²)

External: N2YO · Heavens-Above · Gunter

§ Orbital elements

Epoch: 2026-05-25T04:46:15.767904Z

Period
94.26 min
Inclination
44.9698°
Eccentricity
0.0007064
Mean motion
15.27740796 rev/d
Perigee alt
477.7 km
Apogee alt
487.4 km
Semi-major
6,860.7 km
B*
2.7302e-4
RAAN
182.4362°
Arg perigee
117.7178°
Mean anomaly
242.4422°
Rev number
38,367

§ Raw data

BUFENG 1A1 44310U 19032A   26145.19879361  .00007252  00000+0  27302-3 0  99912 44310  44.9698 182.4362 0007064 117.7178 242.4422 15.27740796383674

JSON: /api/v1/satellites/44310 · /tle

For live sub-satellite position, see the globe view (requires WebGL).

§ Visibility from observer

Set your observer location to see the next 7 days of passes ≥ 10°. The values pass through the URL so the page stays shareable.

No JS? Fill the form by hand. The geolocation button needs JavaScript.